• In United States
  • List of Countries
  • For 7 days
  • Water Temperature
  • Satellite Maps
  • Weather Map
  • Weather Widgets
  • user-avatar
    Login

    Hourly Weather Konstantyna

    Today, 24 June, Sunday

    Time Temperature Precipitation Wind Pressure Humidity
    00:00 +22°C° 0 mm 1 mps 711 mmHg 59%
    01:00 +20°C° 0 mm 0 mps 711 mmHg 60%
    02:00 +20°C° 0 mm 0 mps 711 mmHg 60%
    03:00 +20°C° 0 mm 0 mps 710 mmHg 60%
    04:00 +20°C° 0 mm 0 mps 710 mmHg 57%
    05:00 +21°C° 0 mm 0 mps 711 mmHg 54%
    06:00 +22°C° 0 mm 0 mps 711 mmHg 51%
    07:00 +25°C° 0 mm 1 mps 711 mmHg 47%
    08:00 +27°C° 0 mm 1 mps 711 mmHg 43%
    09:00 +29°C° 0 mm 2 mps 711 mmHg 38%
    10:00 +30°C° 0 mm 3 mps 711 mmHg 36%
    11:00 +31°C° 0 mm 3 mps 711 mmHg 34%
    12:00 +33°C° 0 mm 4 mps 711 mmHg 32%
    13:00 +33°C° 0 mm 5 mps 711 mmHg 32%
    14:00 +33°C° 0 mm 5 mps 711 mmHg 33%
    15:00 +33°C° 0 mm 5 mps 710 mmHg 33%
    16:00 +32°C° 0 mm 4 mps 710 mmHg 37%
    17:00 +29°C° 0 mm 4 mps 710 mmHg 42%
    18:00 +28°C° 0 mm 3 mps 710 mmHg 46%
    19:00 +27°C° 0 mm 3 mps 710 mmHg 51%
    20:00 +25°C° 0 mm 2 mps 710 mmHg 57%
    21:00 +24°C° 0 mm 1 mps 710 mmHg 62%
    22:00 +23°C° 0 mm 1 mps 710 mmHg 65%
    23:00 +23°C° 0 mm 1 mps 710 mmHg 67%

    Tomorrow, 25 June, Monday

    Time Temperature Precipitation Wind Pressure Humidity
    00:00 +22°C° 0 mm 1 mps 710 mmHg 69%
    01:00 +22°C° 0 mm 1 mps 709 mmHg 70%
    02:00 +21°C° 0 mm 1 mps 709 mmHg 70%
    03:00 +21°C° 0 mm 1 mps 709 mmHg 70%
    04:00 +21°C° 0 mm 1 mps 709 mmHg 66%
    05:00 +21°C° 0 mm 1 mps 709 mmHg 62%
    06:00 +22°C° 0 mm 1 mps 709 mmHg 57%
    07:00 +23°C° 0 mm 1 mps 710 mmHg 49%
    08:00 +25°C° 0 mm 2 mps 710 mmHg 41%
    09:00 +27°C° 0 mm 2 mps 711 mmHg 33%
    10:00 +28°C° 0 mm 3 mps 711 mmHg 31%
    11:00 +29°C° 0 mm 3 mps 711 mmHg 29%
    12:00 +30°C° 0 mm 4 mps 711 mmHg 27%
    13:00 +30°C° 0 mm 4 mps 711 mmHg 28%
    14:00 +30°C° 0 mm 5 mps 711 mmHg 29%
    15:00 +30°C° 0 mm 5 mps 711 mmHg 30%
    16:00 +28°C° 0 mm 5 mps 711 mmHg 34%
    17:00 +27°C° 0 mm 4 mps 711 mmHg 38%
    18:00 +26°C° 0 mm 4 mps 711 mmHg 41%
    19:00 +25°C° 0 mm 3 mps 711 mmHg 47%
    20:00 +23°C° 0 mm 2 mps 711 mmHg 53%
    21:00 +22°C° 0 mm 1 mps 711 mmHg 59%
    22:00 +21°C° 0 mm 1 mps 711 mmHg 60%
    23:00 +21°C° 0 mm 1 mps 710 mmHg 61%

    Day after tomorrow, 26 June, Tuesday

    Time Temperature Precipitation Wind Pressure Humidity
    00:00 +21°C° 0 mm 1 mps 710 mmHg 62%
    01:00 +20°C° 0 mm 1 mps 710 mmHg 61%
    02:00 +18°C° 0 mm 0 mps 710 mmHg 60%
    03:00 +18°C° 0 mm 0 mps 709 mmHg 59%
    04:00 +21°C° 0 mm 1 mps 710 mmHg 55%
    05:00 +21°C° 0 mm 1 mps 710 mmHg 50%
    06:00 +22°C° 0 mm 1 mps 710 mmHg 46%
    07:00 +24°C° 0 mm 2 mps 710 mmHg 42%
    08:00 +25°C° 0 mm 2 mps 711 mmHg 38%
    09:00 +27°C° 0 mm 3 mps 711 mmHg 34%
    10:00 +28°C° 0 mm 4 mps 711 mmHg 32%
    11:00 +29°C° 0 mm 4 mps 711 mmHg 31%
    12:00 +30°C° 0 mm 5 mps 711 mmHg 29%
    13:00 +30°C° 0 mm 5 mps 711 mmHg 30%
    14:00 +29°C° 0 mm 5 mps 711 mmHg 31%
    15:00 +29°C° 0 mm 6 mps 710 mmHg 32%
    16:00 +28°C° 0 mm 5 mps 710 mmHg 36%
    17:00 +27°C° 0 mm 4 mps 710 mmHg 40%
    18:00 +25°C° 0 mm 4 mps 710 mmHg 44%
    19:00 +24°C° 0 mm 3 mps 711 mmHg 51%
    20:00 +23°C° 0 mm 2 mps 711 mmHg 57%
    21:00 +21°C° 0 mm 1 mps 711 mmHg 63%
    22:00 +21°C° 0 mm 1 mps 711 mmHg 66%
    23:00 +20°C° 0 mm 1 mps 711 mmHg 68%

    27 June, Wednesday

    Time Temperature Precipitation Wind Pressure Humidity
    00:00 +20°C° 0 mm 1 mps 710 mmHg 71%
    01:00 +19°C° 0 mm 1 mps 710 mmHg 71%
    02:00 +19°C° 0 mm 1 mps 710 mmHg 72%
    03:00 +19°C° 0 mm 1 mps 710 mmHg 72%
    04:00 +18°C° 0 mm 0 mps 710 mmHg 67%
    05:00 +18°C° 0 mm 0 mps 710 mmHg 61%
    06:00 +19°C° 0 mm 0 mps 710 mmHg 56%
    07:00 +23°C° 0 mm 1 mps 711 mmHg 47%
    08:00 +25°C° 0 mm 1 mps 711 mmHg 38%
    09:00 +27°C° 0 mm 1 mps 712 mmHg 30%
    10:00 +28°C° 0 mm 2 mps 712 mmHg 28%
    11:00 +29°C° 0 mm 2 mps 712 mmHg 26%
    12:00 +30°C° 0 mm 3 mps 712 mmHg 24%
    13:00 +30°C° 0 mm 3 mps 711 mmHg 25%
    14:00 +30°C° 0 mm 4 mps 711 mmHg 25%
    15:00 +32°C° 0 mm 4 mps 711 mmHg 26%
    16:00 +29°C° 0 mm 4 mps 711 mmHg 29%
    17:00 +28°C° 0 mm 4 mps 711 mmHg 33%
    18:00 +27°C° 0 mm 4 mps 710 mmHg 36%
    19:00 +26°C° 0 mm 3 mps 711 mmHg 40%
    20:00 +24°C° 0 mm 2 mps 711 mmHg 44%
    21:00 +23°C° 0 mm 2 mps 711 mmHg 48%
    22:00 +23°C° 0 mm 1 mps 711 mmHg 49%
    23:00 +22°C° 0 mm 1 mps 710 mmHg 50%

    28 June, Thursday

    Time Temperature Precipitation Wind Pressure Humidity
    00:00 +22°C° 0 mm 1 mps 710 mmHg 51%
    01:00 +21°C° 0 mm 1 mps 710 mmHg 51%
    02:00 +21°C° 0 mm 1 mps 710 mmHg 51%
    03:00 +21°C° 0 mm 1 mps 709 mmHg 51%
    04:00 +22°C° 0 mm 1 mps 709 mmHg 48%
    05:00 +23°C° 0 mm 1 mps 710 mmHg 46%
    06:00 +24°C° 0 mm 1 mps 710 mmHg 43%
    07:00 +26°C° 0 mm 1 mps 710 mmHg 38%
    08:00 +28°C° 0 mm 1 mps 710 mmHg 34%
    09:00 +30°C° 0 mm 1 mps 711 mmHg 29%
    10:00 +31°C° 0 mm 2 mps 710 mmHg 27%
    11:00 +34°C° 0 mm 2 mps 710 mmHg 24%
    12:00 +35°C° 0 mm 3 mps 710 mmHg 22%
    13:00 +35°C° 0 mm 3 mps 710 mmHg 22%
    14:00 +36°C° 0 mm 4 mps 710 mmHg 22%
    15:00 +36°C° 0 mm 4 mps 710 mmHg 22%
    16:00 +35°C° 0 mm 4 mps 709 mmHg 24%
    17:00 +34°C° 0 mm 3 mps 709 mmHg 26%
    18:00 +33°C° 0 mm 3 mps 709 mmHg 27%
    19:00 +31°C° 0 mm 2 mps 709 mmHg 29%
    20:00 +29°C° 0 mm 2 mps 709 mmHg 31%
    21:00 +28°C° 0 mm 1 mps 709 mmHg 32%
    22:00 +28°C° 0 mm 1 mps 709 mmHg 32%
    23:00 +28°C° 0 mm 2 mps 708 mmHg 31%

    29 June, Friday

    Time Temperature Precipitation Wind Pressure Humidity
    00:00 +27°C° 0 mm 2 mps 708 mmHg 31%
    01:00 +27°C° 0 mm 2 mps 708 mmHg 31%
    02:00 +27°C° 0 mm 2 mps 707 mmHg 31%
    03:00 +27°C° 0 mm 2 mps 707 mmHg 32%
    04:00 +28°C° 0 mm 2 mps 707 mmHg 32%
    05:00 +29°C° 0 mm 2 mps 707 mmHg 32%
    06:00 +29°C° 0 mm 2 mps 708 mmHg 32%
    07:00 +33°C° 0 mm 3 mps 708 mmHg 28%
    08:00 +35°C° 0 mm 3 mps 709 mmHg 24%
    09:00 +37°C° 0 mm 4 mps 709 mmHg 20%
    10:00 +40°C° 0 mm 4 mps 709 mmHg 18%
    11:00 +41°C° 0 mm 5 mps 709 mmHg 16%
    12:00 +42°C° 0 mm 6 mps 709 mmHg 14%
    13:00 +44°C° 0 mm 6 mps 709 mmHg 14%
    14:00 +44°C° 0 mm 6 mps 709 mmHg 14%
    15:00 +44°C° 0 mm 6 mps 709 mmHg 14%
    16:00 +42°C° 0 mm 6 mps 708 mmHg 16%
    17:00 +40°C° 0 mm 5 mps 708 mmHg 18%
    18:00 +38°C° 0 mm 4 mps 708 mmHg 19%
    19:00 +37°C° 0 mm 3 mps 708 mmHg 20%
    20:00 +35°C° 0 mm 3 mps 708 mmHg 21%
    21:00 +34°C° 0 mm 3 mps 708 mmHg 22%
    22:00 +33°C° 0 mm 3 mps 708 mmHg 23%
    23:00 +31°C° 0 mm 2 mps 708 mmHg 24%
    Show more